Weather History for La Ronge, SK

Change the Weather History Date:

Tuesday, January 29, 2013

  Actual Average Record
Temperature  
Mean Temperature -10 °F -  
Max Temperature 0 °F 8 °F 32 °F (2000)
Min Temperature -22 °F -6 °F -52 °F (2004)
Degree Days  
Heating Degree Days 75    
Moisture  
Dew Point -14 °F    
Average Humidity 68    
Maximum Humidity 92    
Minimum Humidity 41    
Precipitation  
Precipitation 0.04 in - - ()
Sea Level Pressure  
Sea Level Pressure 30.20 in    
Wind  
Wind Speed 11 mph ()    
Max Wind Speed 21 mph    
Max Gust Speed 29 mph    
Visibility 9.0 miles    
Events Snow    
Averages and records for this station are not official NWS values.
T = Trace of Precipitation, MM = Missing Value Source: Averaged Metar Reports

Daily Weather History Graph

Daily Weather History Graph

Search for Another Location

Airport:

Trip Planner

Search our weather history database for the weather conditions in past years. The results will help you decide how hot, cold, wet, or windy it might be!

Date:

Astronomy

Jan. 29, 2013 Rise Set
Actual Time 8:57 AM CST 5:32 PM CST
Civil Twilight 8:16 AM CST 6:12 PM CST
Nautical Twilight 7:32 AM CST 6:57 PM CST
Astronomical Twilight 6:49 AM CST 7:39 PM CST
Moon 9:12 PM CST (1/29) 9:19 AM CST (1/29)
Length of Visible Light 9h 56m
Length of Day
8h 35m
Waning Gibbous, 93% of the Moon is Illuminated
Jan 29
Waning Gibbous
Feb 3
Last Quarter
Feb 10
New
Feb 17
First Quarter
Feb 25
Full

Hourly Weather History & Observations

Time (CST) Temp. Windchill Dew Point Humidity Pressure Visibility Wind Dir Wind Speed Gust Speed Precip Events Conditions
12:00 AM 10 °F - 7 °F 81% 29.94 in 12 mi NNW 5.8 mph - - Snow Light Snow
12:00 AM 10.4 °F 0.8 °F 6.8 °F 85% 29.94 in 12.0 mi NW 5.8 mph - N/A Snow Light Snow
1:00 AM 10.4 °F -0.4 °F 6.8 °F 85% 29.95 in 8.0 mi NW 6.9 mph - N/A Snow Light Snow
2:00 AM 8.6 °F -1.3 °F 6.8 °F 92% 29.96 in 10.0 mi NW 5.8 mph - N/A Snow Light Snow
3:00 AM 8.6 °F -4.7 °F 5.0 °F 85% 29.98 in 4.0 mi NNW 9.2 mph - N/A Snow Light Snow
4:00 AM 8.6 °F -8.3 °F 5.0 °F 85% 30.01 in 3.0 mi NW 15.0 mph - N/A Snow Light Snow
5:00 AM 3.2 °F -14.6 °F -2.2 °F 78% 30.04 in 3.0 mi WNW 13.8 mph 19.6 mph N/A Snow Light Snow
5:37 AM 1.4 °F -18.8 °F -4.0 °F 78% - 1.5 mi NW 17.3 mph 24.2 mph N/A Snow Light Snow
6:00 AM 0 °F - -6 °F 65% 30.09 in 2 mi NW 20.7 mph - - Snow Light Snow
6:00 AM -0.4 °F -21.2 °F -5.8 °F 78% 30.09 in 2.0 mi NW 17.3 mph 25.3 mph N/A Snow Light Snow
7:00 AM -2.2 °F -21.5 °F -9.4 °F 71% 30.12 in 2.0 mi NW 13.8 mph 23.0 mph N/A Snow Light Snow
8:00 AM -5.8 °F -28.2 °F -14.8 °F 65% 30.16 in 6.0 mi NW 17.3 mph - N/A Snow Light Snow
9:00 AM -7.6 °F -30.5 °F -14.8 °F 71% 30.20 in 3.0 mi NW 17.3 mph - N/A Snow Light Snow
10:00 AM -9.4 °F -31.4 °F -16.6 °F 71% 30.24 in 4.0 mi NW 15.0 mph - N/A Snow Light Snow
11:00 AM -9.4 °F -33.5 °F -20.2 °F 59% 30.26 in 3.0 mi NW 18.4 mph 25.3 mph N/A Snow Light Snow
12:00 PM -10 °F - -21 °F 41% 30.30 in 10 mi WNW 17.3 mph - - Snow Light Snow
12:00 PM -11.2 °F -35.2 °F -20.2 °F 64% 30.30 in 10.0 mi WNW 17.3 mph 25.3 mph N/A Snow Light Snow
1:00 PM -13.0 °F -39.4 °F -22.0 °F 64% 30.31 in 6.0 mi WNW 20.7 mph 28.8 mph N/A Snow Light Snow
2:00 PM -13.0 °F -37.5 °F -23.8 °F 59% 30.32 in 6.0 mi WNW 17.3 mph 25.3 mph N/A Snow Light Snow
3:00 PM -13.0 °F -38.2 °F -23.8 °F 59% 30.32 in 6.0 mi WNW 18.4 mph - N/A Snow Light Snow
3:50 PM - - - N/A% - 15.0 mi WNW 17.3 mph - N/A   Mostly Cloudy
4:00 PM -14.8 °F -39.8 °F -25.6 °F 58% 30.34 in 15.0 mi WNW 17.3 mph 24.2 mph N/A   Mostly Cloudy
5:00 PM -16.6 °F -38.9 °F -27.4 °F 58% 30.34 in 15.0 mi WNW 12.7 mph 19.6 mph N/A   Scattered Clouds
6:00 PM -18 °F - -28 °F 42% 30.37 in 15 mi East 12.7 mph - -   Partly Cloudy
6:00 PM -18.4 °F -40.2 °F -27.4 °F 63% 30.37 in 15.0 mi WNW 11.5 mph 18.4 mph N/A   Scattered Clouds
7:00 PM -18.4 °F -40.2 °F -29.2 °F 58% 30.37 in 15.0 mi West 11.5 mph - N/A   Partly Cloudy
8:00 PM -20.2 °F -38.8 °F -29.2 °F 63% 30.36 in 15.0 mi West 8.1 mph - N/A   Partly Cloudy
9:48 PM - - - N/A% - 15.0 mi West 12.7 mph - N/A   Unknown
10:00 PM -20.2 °F -43.4 °F -29.2 °F 63% 30.35 in 15.0 mi West 12.7 mph - N/A   Mostly Cloudy
11:00 PM -22.0 °F -44.7 °F -29.2 °F 69% 30.32 in 15.0 mi West 11.5 mph - N/A   Overcast
11:32 PM - - - N/A% - 15.0 mi West 9.2 mph - N/A   Unknown